Preview of NWS' New Version of Forecast
This preview is not operational and should not be used for support decisions.

Regional Weather Roundup (RWR)

Issued by Gray - Portland, ME (GYX)

                            
000
ASUS41 KGYX 251405
RWRGYX
WEATHER ROUNDUP FOR MAINE AND NEW HAMPSHIRE
NATIONAL WEATHER SERVICE GRAY ME
1000 AM EDT TUE JUN 25 2019

MEZ002-005-006-010-012-015-018-020-021-024-026-027-029-251500-
MAINE
  
CITY           SKY/WX    TMP DP  RH WIND       PRES   REMARKS
PORTLAND       CLOUDY    61  54  77 E10       29.96S                  
SANFORD        FAIR      65  58  78 E8        29.94S                  
BAR HARBOR     FAIR      68  48  48 E7        29.99F                  
WISCASSET      FAIR      68  52  56 E7        29.97F                  
ROCKLAND       FAIR      62  53  72 E6        29.99S                  
FRYEBURG       FAIR      66  51  58 E3        29.95F                  
LEWISTONAUBURN FAIR      67  54  63 SE7       29.95F                  
AUGUSTA        FAIR      70  50  49 S7        29.97F                  
WATERVILLE     FAIR      70  52  52 S5        29.95S                  
BANGOR         FAIR      73  47  39 S5        29.98F                  
GREENVILLE       N/A     67  45  45 SE7       29.96F                  
MILLINOCKET    FAIR      70  47  43 E5        29.99F                  
HOULTON        FAIR      69  45  41 S8        29.98F                  
PRESQUE ISLE   FAIR      68  49  50 SE6       30.00S                  
FRENCHVILLE    FAIR      67  45  45 SE9       29.99S                  
CARIBOU        FAIR      67  49  52 VRB7      29.98F                  
$$

NHZ002-005-008-009-011-012-014-251500-
NEW HAMPSHIRE
  
CITY           SKY/WX    TMP DP  RH WIND       PRES   REMARKS
PORTSMOUTH     CLOUDY    65  59  81 E7        29.91S                  
ROCHESTER      PTSUNNY   66  58  75 E6        29.92F                  
NASHUA         PTSUNNY   66  60  81 SE3       29.91F                  
MANCHESTER     CLOUDY    67  58  72 E5        29.89F                  
CONCORD        PTSUNNY   65  56  72 CALM      29.91F                  
LACONIA        CLOUDY    63  55  75 NE8       29.92F                  
PLYMOUTH       CLOUDY    64  53  68 CALM      29.92S                  
BERLIN         CLOUDY    70  52  52 SE10      29.91F                  
WHITEFIELD     PTSUNNY   71  53  52 E5        29.87F                  
JAFFREY        CLOUDY    63  55  75 N3        29.91F                  
KEENE          CLOUDY    67  60  78 CALM      29.89S                  
LEBANON        CLOUDY    66  54  65 W5        29.87S                  
MT WASHINGTON  CLOUDY    48  41  76 S25G35      N/A                   
$$

VTZ005-007-008-251500-
VERMONT
  
CITY           SKY/WX    TMP DP  RH WIND       PRES   REMARKS
ST JOHNSBURY     N/A     63  53  70 MISG      29.86F                  
MONTPELIER     CLOUDY    60  54  80 CALM      29.90F                  
BURLINGTON     CLOUDY    68  59  73 SE7       29.78S                  
$$

MAZ007-012-024-CTZ003-RIZ002-NYZ038-NYZ072-251500-
SOUTHERN NEW ENGLAND AND NY
  
CITY           SKY/WX    TMP DP  RH WIND       PRES   REMARKS
BOSTON         CLOUDY    67  61  81 E8        29.91S                  
WORCESTER      CLOUDY    65  60  84 E5        29.92S                  
NANTUCKET      FOG       62  61  96 SE8       29.94S VSB 3/4          
PROVIDENCE     CLOUDY    71  67  87 S9        29.91S                  
HARTFORD       CLOUDY    71  67  87 SE6       29.85F                  
ALBANY         LGT RAIN  71  67  87 S8        29.79F                  
NEW YORK CITY  CLOUDY    73  69  87 S8        29.81F FOG              
$$

ANZ081-ANZ082-ANZ150-NHZ014-MEZ023>029-251500-
COASTAL MARINE OBSERVATIONS
  
STATION/POSITION TIME  TEMP    WIND        PRES    WAVE
                       AIR SEA DIR/SP/G            HT/PER
                 (UTC) (F)     (DEG/KT/KT) (MB)    (FT/S)
ISLE OF SHOALS   1300   60     120/  8/  8 1012.9R
JEFFREYS LEDGE   1338      58                N/A     2/ 4
CASHES LEDGE BUO 1350   58 55  140/ 12/ 14 1014.9S   2/ 8
GEORGES BANK BUO 1350   56 54  180/  4/  4 1017.5R   2/ 6
$$

.............KEY..............
   WCI - WIND CHILL
   TC  - TEMPERATURE IN CELSIUS
   VSB - VISIBILITY IN MILES
   HX  - HEAT INDEX
   FAIR- INDICATES FEW OR NO CLOUDS BELOW 12,000 FT, WITH NO 
         SIGNIFICANT WEATHER AND/OR OBSTRUCTIONS TO VISIBILITY.